Regional Weather Roundup
Issued by NWS

Home | Current Version | Previous Version | Text Only | Print | Product List | Glossary Off
Versions: 1 2 3 4 5 6 7 8 9 10 11 12 13 14 15 16 17 18 19 20 21 22 23 24 25 26 27 28 29 30 31 32 33 34 35 36 37 38 39 40 41 42 43 44 45 46 47 48 49 50

282
ASUS43 KLSX 091407
RWRMO

WEATHER SUMMARY FOR MISSOURI
NATIONAL WEATHER SERVICE SPRINGFIELD MO
800 AM CST FRI DEC 09 2016

NOTE: "FAIR" INDICATES FEW OR NO CLOUDS BELOW 12,000 FEET WITH NO
       SIGNIFICANT WEATHER AND/OR OBSTRUCTIONS TO VISIBILITY.
       CURRENT SKY AND/OR WEATHER CONDITIONS ARE NOT AVAILABLE FOR
       CHILLICOTHE AND FARMINGTON.

MOZ001>031-035>038-043-044-053-054-091500-
...NORTHERN AND WESTERN MISSOURI...

CITY           SKY/WX    TMP DP  RH WIND       PRES   REMARKS
KANSAS CTY INT CLOUDY    15   8  73 NE3       30.63S
KANSAS C DTWN  PTCLDY    18  10  71 CALM      30.66S
LEE`S SUMMIT   MOCLDY    16  11  80 CALM      30.64R
ST JOSEPH      PTCLDY    11   8  88 CALM      30.65S
CHILLICOTHE      N/A     10   6  84 CALM      30.66S
KIRKSVILLE     CLEAR     10   6  84 W6        30.62R WCI   0

$$
MOZ066>068-077>081-088>096-101>105-091500-
...SOUTHWEST MISSOURI...

CITY           SKY/WX    TMP DP  RH WIND       PRES   REMARKS
SPRINGFIELD    CLOUDY    16  10  77 CALM      30.61S
JOPLIN         CLOUDY    13  10  88 CALM      30.66S
BRANSON        PTCLDY    16  10  79 CALM      30.64S

$$
MOZ032>034-039>042-045>050-055>058-069>072-091500-
...CENTRAL MISSOURI...

CITY           SKY/WX    TMP DP  RH WIND       PRES   REMARKS
COLUMBIA       CLEAR     15  10  80 NW6       30.63S WCI   6
JEFFERSON CITY CLEAR     14   9  80 CALM      30.66F
ROLLA          CLEAR     14  10  84 W3        30.59S
SEDALIA        CLEAR     15   9  76 NW3       30.65F
WHITEMAN AFB   CLEAR     16  11  80 NW6       30.64S WCI   7
WARRENSBURG    PTCLDY    14  10  85 CALM      30.67R
OSAGE BEACH    CLEAR     14  10  84 CALM      30.65F

$$
MOZ051-052-059>065-091500-
...EAST CENTRAL MISSOURI...

CITY           SKY/WX    TMP DP  RH WIND       PRES   REMARKS
ST LOUIS INTL  PTCLDY    20  11  68 W8        30.63S WCI  10
SPIRIT OF STL  CLEAR     16  12  84 SW3       30.65S
ST CHARLES     CLEAR     19  14  81 W8        30.64S WCI   9

$$
MOZ072>076-082>087-097>100-106>115-091500-
...SOUTH CENTRAL AND SOUTHEAST MISSOURI...

CITY           SKY/WX    TMP DP  RH WIND       PRES   REMARKS
CAPE GIRARDEAU PTCLDY    20  13  74 NW7       30.65S WCI  11
FARMINGTON     CLEAR     16  11  80 W5        30.62S WCI   9
POPLAR BLUFF   CLEAR     20  13  74 NW6       30.67R WCI  12
WEST PLAINS    CLEAR     16  12  84 W3        30.62S

$$



USA.gov is the U.S. government's official web portal to all federal, state and local government web resources and services.